Location: Nairn
(57.5833°N, 3.8667°W)
Time: 16:40:32
(UTC+00:00)

Cosmos 2297 Rocket - Pass Details

Date: 07 August 2020
Orbit: 838 x 845 km, 71.0° (Epoch: 22 September)

Event Time Altitude Azimuth Distance (km) Brightness Sun altitude
Exits shadow 00:46:06 10° 136° (SE) 2,462 4.3 -15.9°
Reaches altitude 10° 00:46:08 10° 136° (SE) 2,454 4.2 -15.9°
Maximum altitude 00:49:30 16° 98° (E) 2,038 4.2 -15.8°
Drops below altitude 10° 00:52:53 10° 61° (ENE) 2,467 5.1 -15.8°
Sets 00:56:13 0° 42° (NE) 3,409 6.3 -15.7°
